Flag for Canada Weather past 2 weeks in Edmonton, Alberta, Canada

Now
62 °F

Refreshingly cool.


Feels Like: 62 °F
Forecast: 51 / 70 °F
Wind: 6 mph from Northwest

Location: Edmonton Municipal

Current Time: Jul 29, 2015 at 1:35:37 AM

Latest Report: Jul 29, 2015 at 1:00 AM


Visibility: N/A

Pressure: 30.00 "Hg (27.64 "Hg at 692m altitude)

Humidity: 59%

Dew point: 47 °F

Location of EdmontonLocation

Historic Weather in Edmonton — Graph

°F

Edmonton temperature yesterday

Maximum temperature yesterday: 75 °F (at 5:00 PM)
Minimum temperature yesterday: 54 °F (at 7:00 AM)
Average temperature yesterday: 65 °F

Past Weeks' High & Low Weather Summary

 TemperatureHumidityPressure
High79 °F (Jul 18, 5:00 PM)96% (Jul 17, 5:00 AM)30.02 "Hg (Jul 17, 5:00 AM)
Low49 °F (Jul 23, 4:00 AM)27% (Jul 14, 3:00 PM)29.67 "Hg (Jul 20, 10:00 PM)
Average65 °F61%29.83 "Hg
* Reported Midnight between Jul 13 and Jul 14 — Midnight between Jul 28 and Jul 29, Edmonton, Weather by CustomWeather, © 2015

Note: Actual official high and low records may vary slightly from our data, if they occured in-between our weather recording intervals... More about our weather records

Advertising

Edmonton weather history for previous 24 hours

 ConditionsComfort  
Time TempWeatherWind HumidityBarometerVisibility
12:00 AM
Wed, Jul 29
62 °FRefreshingly cool.6 mph59%29.98 "HgN/A
11:00 PM
Tue, Jul 28
65 °FMild.5 mph53%29.98 "HgN/A
10:00 PM68 °FMild.2 mph45%29.97 "HgN/A
9:00 PM69 °FMild.6 mph38%29.95 "HgN/A
8:00 PM73 °FMild.10 mph33%29.95 "HgN/A
7:00 PM74 °FMild.16 mph31%29.94 "HgN/A
6:00 PM71 °FMild.10 mph35%29.94 "HgN/A
5:00 PM75 °FMild.13 mph33%29.93 "HgN/A
4:00 PM72 °FMild.13 mph35%29.93 "HgN/A
3:00 PM73 °FMild.14 mph35%29.92 "HgN/A
2:00 PM71 °FMild.15 mph40%29.92 "HgN/A
1:00 PM71 °FMild.17 mph36%29.92 "HgN/A
12:00 PM70 °FMild.13 mph42%29.93 "HgN/A
11:00 AM68 °FMild.15 mph40%29.96 "HgN/A
10:00 AM65 °FMild.10 mph46%29.97 "HgN/A
9:00 AM63 °FMild.8 mph52%29.98 "HgN/A
8:00 AM59 °FRefreshingly cool.8 mph59%29.98 "HgN/A
7:00 AM54 °FCool.8 mph69%29.98 "HgN/A
6:00 AM55 °FCool.5 mph67%29.98 "HgN/A
5:00 AM56 °FCool.6 mph65%29.96 "HgN/A
4:00 AM58 °FCool.10 mph67%29.95 "HgN/A
3:00 AM58 °FCool.7 mph68%29.94 "HgN/A
2:00 AM59 °FCool.6 mph64%29.93 "HgN/A
1:00 AM60 °FCool.6 mph61%29.91 "HgN/A
Weather by CustomWeather, © 2015

See weather overviewHow to use our weather pages